This is the latest recevied weather packets stored in our database for station/object KC4GS-13. If no packets are shown the sender has not sent any weather packets the latest 10 day(s).
| Time | Temp. | Humidity | Pressure | Rain* | Wind** | Luminosity | Snow |
|---|---|---|---|---|---|---|---|
| 1777827239 | 20° C | 49% | 1020.8 hPa | 0 mm | - | 771 W/m² | - |
| 1777826934 | 19.44° C | 47% | 1021 hPa | 0 mm | - | 282 W/m² | - |
| 1777826632 | 19.44° C | 48% | 1021.2 hPa | 0 mm | - | 243 W/m² | - |
| 1777826327 | 19.44° C | 49% | 1021.1 hPa | 0 mm | - | 594 W/m² | - |
| 1777826026 | 19.44° C | 48% | 1021.4 hPa | 0 mm | - | 761 W/m² | - |
| 1777825722 | 18.89° C | 47% | 1021.3 hPa | 0 mm | - | 292 W/m² | - |
| 1777825420 | 18.89° C | 47% | 1021.5 hPa | 0 mm | - | 204 W/m² | - |
| 1777825117 | 18.89° C | 51% | 1021.5 hPa | 0 mm | - | 132 W/m² | - |
| 1777824813 | 18.89° C | 50% | 1021.6 hPa | 0 mm | - | 527 W/m² | - |
| 1777824510 | 18.89° C | 54% | 1021.4 hPa | 0 mm | - | 363 W/m² | - |
| 1777824206 | 18.33° C | 53% | 1021.6 hPa | 0 mm | - | 451 W/m² | - |
| 1777823902 | 18.33° C | 57% | 1021.7 hPa | 0 mm | - | 847 W/m² | - |
| 1777823600 | 18.33° C | 60% | 1021.6 hPa | 0 mm | - | 861 W/m² | - |
| 1777823296 | 18.33° C | 60% | 1021.9 hPa | 0 mm | - | 838 W/m² | - |
| 1777822994 | 18.33° C | 61% | 1021.8 hPa | 0 mm | - | 858 W/m² | - |
| 1777822692 | 18.33° C | 60% | 1021.5 hPa | 0 mm | - | 882 W/m² | - |
| 1777822390 | 17.78° C | 60% | 1021.8 hPa | 0 mm | - | 889 W/m² | - |
| 1777822087 | 18.33° C | 64% | 1021.8 hPa | 0 mm | - | 896 W/m² | - |
| 1777821785 | 17.78° C | 63% | 1021.7 hPa | 0 mm | - | 586 W/m² | - |
| 1777821482 | 17.78° C | 64% | 1021.5 hPa | 0 mm | - | 904 W/m² | - |
| 1777821179 | 17.78° C | 64% | 1021.8 hPa | 0 mm | - | 229 W/m² | - |
| 1777820876 | 17.22° C | 67% | 1021.8 hPa | 0 mm | - | 909 W/m² | - |
| 1777820572 | 16.67° C | 68% | 1021.5 hPa | 0 mm | - | 783 W/m² | - |
| 1777820269 | 16.11° C | 70% | 1021.9 hPa | 0 mm | - | 735 W/m² | - |
| 1777819966 | 15.56° C | 70% | 1021.8 hPa | 0 mm | - | 685 W/m² | - |
* Rain latest hour (hover to see other rain measurements)
** Current wind speed in m/s (hover to see current wind gust speed)